Other Surface Observations
Issued by NWS

Home | Current Version | Previous Version | Text Only | Print | Product List | Glossary On
Versions: 1 2 3 4 5 6 7 8 9 10 11 12 13 14 15 16 17 18 19 20 21 22 23 24 25 26 27 28 29 30 31 32 33 34 35 36 37 38 39 40 41 42 43 44 45 46 47 48 49 50
000
SXUS52 KTAE 012111
OSOTAE
OSOTAE
North Florida/South Alabama/Southwest Georgia Weather Roundup
National Weather Service Tallahassee Florida
500 PM EDT SAT AUG 01 2015

Note: "fair" indicates few or no clouds below 12,000 feet with no
significant weather and/or obstructions to visibility.

!FLZ017-115-028-034-025-012200
...North Florida...

CITY           SKY/WX    TMP DP  RH WIND       PRES   REMARKS
TALLAHASSEE    PTSUNNY   82  76  81 S3        29.85F
APALACHICOLA   TSTM      82  75  79 NE14G29   29.85R
PERRY          CLOUDY    80  80 100 S5        29.86F
CROSS CITY       N/A     80 N/A N/A S5        29.87S
JACKSONVILLE   CLOUDY    83  75  77 S13       29.88S HX  90
$$

!FLZ112-006-005-002-011-012200
...Florida Panhandle...

CITY           SKY/WX    TMP DP  RH WIND       PRES   REMARKS
MARIANNA       MOSUNNY   92  76  59 CALM      29.83F HX 104
BONIFAY        NOT AVBL
PANAMA CITY NW PTSUNNY   94  73  50 NW12      29.82R HX 103
TYNDALL AFB    TSTM      75  73  94 NE9       29.86R VSB 1/4
TYND DRONE APT TSTM      75  73  94 NE7       29.85R
DE FUNIAK SPR  FAIR      91  75  59 NE7       29.85R HX 100
EGLIN AFB      MOSUNNY   90  76  62 S10       29.83F HX 102
DESTIN         MOSUNNY   91  77  63 VRB5      29.83F HX 104
HURLBURT       MOSUNNY   87  75  68 SW5       29.82F HX  96
CRESTVIEW      MOSUNNY   95  74  50 N6        29.84F HX 105
PENSACOLA      LGT RAIN  84  77  79 E3        29.84F HX  94
$$

!ALZ063-066-012200
...South Alabama...

CITY           SKY/WX    TMP DP  RH WIND       PRES   REMARKS
DOTHAN         MOSUNNY   90  73  57 SE5       29.88F HX  98
OZARK CAIRNS   PTSUNNY   91  76  61 SE3       29.84F HX 101
FT RUCKER HELI SUNNY     94  71  47 N6        29.83F HX 101
RUCKER HELI 3  FAIR      90  71  54 E6        29.86F HX  96
RUCKER HELI 2  FAIR      93  72  50 NW3       29.83F HX 101
FLORALA APT    MOSUNNY   92  73  53 NE7       29.86F HX 100
ANDALUSIA      MOSUNNY   97  71  42 E7        29.84F HX 104
TROY           PTSUNNY   88  74  63 S3        29.86F HX  96
EUFALA         FAIR      93  79  63 S8        29.84F HX 110
MOBILE         MOSUNNY   93  66  40 N13       29.87F HX  96
$$

!GAZ120>161-012200
...Southwest and South Central Georgia...

CITY           SKY/WX    TMP DP  RH WIND       PRES   REMARKS
THOMASVILLE    FAIR      91  73  55 NE10      29.85F HX 100
BAINBRIDGE     MOSUNNY   95  77  55 E10       29.84S HX 109
MOODY AFB      MOSUNNY   91  73  54 VRB5      29.83F HX  99
VALDOSTA       TSTM      79  79 100 S8        29.85S
MOULTRIE       MOSUNNY   90  72  55 NE6       29.85F HX  96
BLAKELY        SUNNY     93  73  52 E3        29.85F HX 102
ALBANY         MOSUNNY   93  74  53 NE5       29.86F HX 103
TIFTON         FAIR      90  73  57 E5        29.85F HX  98
FITZGERALD     FAIR      91  74  57 SE3       29.88S HX 100
CORDELE        FAIR      94  74  52 E6        29.86F HX 104
AMERICUS       FAIR      90  72  55 SE3       29.87F HX  96
HOMERVILLE     PTSUNNY   88  79  74 E5        29.85F HX 102
$$

!GMZ750-755-770-775-012200
...Coastal and Buoy Obs...

STATION/POSITION TIME  TEMP    WIND        PRES    VSBY  WAVE
                       AIR SEA DIR/SP/G                  HT/PER
                 (UTC) (F)     (DEG/KT/KT) (MB)    (MI)  (FT/S)
KEATON BEACH     2100   80     260/ 10/ 11 1010.9F
CEDAR KEY        2100   79     220/  9/ 13 1012.4F
C TOWER          2100   81     270/ 12/ 13 1010.6R
APALACHICOLA BUO 2050   82 85  240/ 19/ 21 1011.2R         6/ 7
PANAMA CITY BUOY 2050   82 86  250/ 14/ 17 1010.5F         5/ 7
MOBILE BUOY      2050   85 88  330/ 10/ 12 1010.8F         1/ 4
ORANGE BCH AL BU 2050   85 88  320/  2/  4 1010.0F         1/ 4
$$



USA.gov is the U.S. government's official web portal to all federal, state and local government web resources and services.